Varnadiep — PBIB — position and weather

sailwx.info

Track history (hours):
 
Tides and Currents Weather Stations Pressure Air Temp Water Temp Dewpoint Dewpoint Depression Visibility Wind Speed Wind Dir Waves Ship Positions

Varnadiep

Last reported at 2014-Jul-24 21:11 UTC. Time now 2014-Jul-26 05:09 UTC.
Position N 35°55' W 005°17'.

Length 118 m; draft 7.4 m.

Type: Cargo ship. MMSI: 244729000.

Date/timePositionNaut miles runAvg speedWind from/ knotsBaromVisibWave heightAir tempDewpointWater temp
2014-Jul-24 21:11N 35°55' W 005°17'2 3.3
2014-Jul-24 20:33N 35°54' W 005°19'0 0.0
2014-Jul-24 19:33N 35°54' W 005°19'0 0.0
2014-Jul-24 18:33N 35°54' W 005°19'0 0.0
2014-Jul-24 17:33N 35°54' W 005°19'0 0.0
2014-Jul-24 16:33N 35°54' W 005°19'6 6.2
2014-Jul-24 15:33N 35°58' W 005°25'16411.6
2014-Jul-24 01:28N 36°27' W 008°45'1010.9
2014-Jul-24 00:33N 36°29' W 008°57'2710.6
2014-Jul-23 22:04N 36°41' W 009°27'610.8
2014-Jul-23 21:30N 36°45' W 009°32'1111.2
2014-Jul-23 20:32N 36°55' W 009°36'1211.7
2014-Jul-23 19:33N 37°07' W 009°39'1211.9
2014-Jul-23 18:31N 37°19' W 009°42'1211.8
2014-Jul-23 17:33N 37°30' W 009°45'1211.7
2014-Jul-23 16:33N 37°41' W 009°48'1211.4
2014-Jul-23 15:31N 37°53' W 009°52'1212.0
2014-Jul-23 14:33N 38°04' W 009°55'1211.7
2014-Jul-23 13:33N 38°15' W 009°59'1311.4
2014-Jul-23 12:23N 38°28' W 010°02'1111.7
2014-Jul-23 11:29N 38°39' W 010°05'1111.6
2014-Jul-23 10:33N 38°50' W 010°05'1311.5
2014-Jul-23 09:24N 39°03' W 010°05'55511.1
2014-Jul-21 07:33N 47°56' W 006°32'27611.0
2014-Jul-20 06:22N 50°25' W 000°37'1012.3
2014-Jul-20 05:33N 50°28' W 000°21'1111.5
2014-Jul-20 04:33N 50°31' W 000°04'1110.4
2014-Jul-20 03:29N 50°34' E 000°13'9 9.8
2014-Jul-20 02:33N 50°37' E 000°26'1010.3
2014-Jul-20 01:33N 50°42' E 000°41'1211.6
2014-Jul-20 00:33N 50°49' E 000°56'1312.7
2014-Jul-19 23:30N 50°57' E 001°13'1213.0
2014-Jul-19 22:33N 51°05' E 001°28'1211.7
2014-Jul-19 21:34N 51°12' E 001°42'1110.6
2014-Jul-19 20:33N 51°21' E 001°52'10 9.8
2014-Jul-19 19:33N 51°29' E 001°59'1010.3
2014-Jul-19 18:33N 51°37' E 002°10'1010.3
2014-Jul-19 17:33N 51°45' E 002°21'1311.3
2014-Jul-19 16:26N 51°54' E 002°35'1112.3
2014-Jul-19 15:33N 52°02' E 002°47'1312.9
2014-Jul-19 14:32N 52°12' E 003°01'1313.3
2014-Jul-19 13:33N 52°23' E 003°13'1313.0
2014-Jul-19 12:31N 52°34' E 003°26'1212.1
2014-Jul-19 11:32N 52°43' E 003°39'1311.4
2014-Jul-19 10:25N 52°53' E 003°52'2210.6
2014-Jul-19 08:23N 53°07' E 004°19'810.0
2014-Jul-19 07:33N 53°14' E 004°27'1211.8
2014-Jul-19 06:34N 53°25' E 004°34'1212.0
2014-Jul-19 05:33N 53°31' E 004°51'1312.9
2014-Jul-19 04:33N 53°35' E 005°11'1212.3
2014-Jul-19 03:33N 53°40' E 005°31'1111.5
2014-Jul-19 02:33N 53°43' E 005°49'1110.8
2014-Jul-19 01:33N 53°47' E 006°07'1110.6
2014-Jul-19 00:34N 53°50' E 006°24'1110.5
2014-Jul-18 23:29N 53°53' E 006°42'1111.1
2014-Jul-18 22:31N 53°56' E 006°60'1612.2
2014-Jul-18 21:11N 54°00' E 007°26'812.7
2014-Jul-18 20:33N 54°02' E 007°40'1312.9
2014-Jul-18 19:33N 54°01' E 008°02'1313.1
2014-Jul-18 18:33N 53°59' E 008°24'1212.4
2014-Jul-18 17:34N 53°54' E 008°42'9 8.8
2014-Jul-18 16:33N 53°51' E 008°56'8 6.8
2014-Jul-18 15:26N 53°54' E 009°09'4 4.0
2014-Jul-18 14:31N 53°56' E 009°13'8 8.5
2014-Jul-18 13:33N 54°04' E 009°19'38 4.7
2014-Jul-18 05:33N 54°24' E 010°12'9 9.2
2014-Jul-18 04:33N 54°31' E 010°23'9 8.7
2014-Jul-18 03:32N 54°35' E 010°37'8 8.6
2014-Jul-18 02:33N 54°35' E 010°51'9 9.0
2014-Jul-18 01:33N 54°36' E 011°07'9 9.2
2014-Jul-18 00:33N 54°33' E 011°22'10 9.6
2014-Jul-17 23:33N 54°29' E 011°37'9 9.0
2014-Jul-17 22:33N 54°26' E 011°52'1010.1
2014-Jul-17 21:33N 54°28' E 012°09'1110.7
2014-Jul-17 20:33N 54°37' E 012°16'1010.4
2014-Jul-17 19:33N 54°43' E 012°31'1110.6
2014-Jul-17 18:31N 54°49' E 012°47'1111.0
2014-Jul-17 17:28N 54°53' E 013°06'1011.1
2014-Jul-17 16:33N 54°56' E 013°23'1110.8
2014-Jul-17 15:33N 54°59' E 013°41'1111.0
2014-Jul-17 14:33N 55°03' E 013°59'2211.2
2014-Jul-17 12:33N 55°20' E 014°25'1211.2
2014-Jul-17 11:27N 55°29' E 014°40'1111.2
2014-Jul-17 10:26N 55°34' E 014°57'1011.4
2014-Jul-17 09:33N 55°39' E 015°13'1211.6
2014-Jul-17 08:31N 55°46' E 015°31'1111.9
2014-Jul-17 07:33N 55°51' E 015°49'1211.8
2014-Jul-17 06:33N 55°58' E 016°07'1211.8
2014-Jul-17 05:33N 56°03' E 016°25'2311.2
2014-Jul-17 03:27N 56°22' E 016°51'1111.8
2014-Jul-17 02:33N 56°32' E 016°58'2411.9
2014-Jul-17 00:31N 56°54' E 017°14'1212.2
2014-Jul-16 23:33N 57°05' E 017°22'1212.0
2014-Jul-16 22:33N 57°16' E 017°30'1211.8
2014-Jul-16 21:33N 57°27' E 017°39'1211.5
2014-Jul-16 20:33N 57°37' E 017°49'  
Track history (hours):
 
Tides and Currents Weather Stations Pressure Air Temp Water Temp Dewpoint Dewpoint Depression Visibility Wind Speed Wind Dir Waves Ship Positions

Varnadiep

Last reported at 2014-Jul-24 21:11 UTC. Time now 2014-Jul-26 05:09 UTC.
Position N 35°55' W 005°17'.

Length 118 m; draft 7.4 m.

Type: Cargo ship. MMSI: 244729000.

Date/timePositionNaut miles runAvg speedWind from/ knotsBaromVisibWave heightAir tempDewpointWater temp
2014-Jul-24 21:11N 35°55' W 005°17'2 3.3
2014-Jul-24 20:33N 35°54' W 005°19'0 0.0
2014-Jul-24 19:33N 35°54' W 005°19'0 0.0
2014-Jul-24 18:33N 35°54' W 005°19'0 0.0
2014-Jul-24 17:33N 35°54' W 005°19'0 0.0
2014-Jul-24 16:33N 35°54' W 005°19'6 6.2
2014-Jul-24 15:33N 35°58' W 005°25'16411.6
2014-Jul-24 01:28N 36°27' W 008°45'1010.9
2014-Jul-24 00:33N 36°29' W 008°57'2710.6
2014-Jul-23 22:04N 36°41' W 009°27'610.8
2014-Jul-23 21:30N 36°45' W 009°32'1111.2
2014-Jul-23 20:32N 36°55' W 009°36'1211.7
2014-Jul-23 19:33N 37°07' W 009°39'1211.9
2014-Jul-23 18:31N 37°19' W 009°42'1211.8
2014-Jul-23 17:33N 37°30' W 009°45'1211.7
2014-Jul-23 16:33N 37°41' W 009°48'1211.4
2014-Jul-23 15:31N 37°53' W 009°52'1212.0
2014-Jul-23 14:33N 38°04' W 009°55'1211.7
2014-Jul-23 13:33N 38°15' W 009°59'1311.4
2014-Jul-23 12:23N 38°28' W 010°02'1111.7
2014-Jul-23 11:29N 38°39' W 010°05'1111.6
2014-Jul-23 10:33N 38°50' W 010°05'1311.5
2014-Jul-23 09:24N 39°03' W 010°05'55511.1
2014-Jul-21 07:33N 47°56' W 006°32'27611.0
2014-Jul-20 06:22N 50°25' W 000°37'1012.3
2014-Jul-20 05:33N 50°28' W 000°21'1111.5
2014-Jul-20 04:33N 50°31' W 000°04'1110.4
2014-Jul-20 03:29N 50°34' E 000°13'9 9.8
2014-Jul-20 02:33N 50°37' E 000°26'1010.3
2014-Jul-20 01:33N 50°42' E 000°41'1211.6
2014-Jul-20 00:33N 50°49' E 000°56'1312.7
2014-Jul-19 23:30N 50°57' E 001°13'1213.0
2014-Jul-19 22:33N 51°05' E 001°28'1211.7
2014-Jul-19 21:34N 51°12' E 001°42'1110.6
2014-Jul-19 20:33N 51°21' E 001°52'10 9.8
2014-Jul-19 19:33N 51°29' E 001°59'1010.3
2014-Jul-19 18:33N 51°37' E 002°10'1010.3
2014-Jul-19 17:33N 51°45' E 002°21'1311.3
2014-Jul-19 16:26N 51°54' E 002°35'1112.3
2014-Jul-19 15:33N 52°02' E 002°47'1312.9
2014-Jul-19 14:32N 52°12' E 003°01'1313.3
2014-Jul-19 13:33N 52°23' E 003°13'1313.0
2014-Jul-19 12:31N 52°34' E 003°26'1212.1
2014-Jul-19 11:32N 52°43' E 003°39'1311.4
2014-Jul-19 10:25N 52°53' E 003°52'2210.6
2014-Jul-19 08:23N 53°07' E 004°19'810.0
2014-Jul-19 07:33N 53°14' E 004°27'1211.8
2014-Jul-19 06:34N 53°25' E 004°34'1212.0
2014-Jul-19 05:33N 53°31' E 004°51'1312.9
2014-Jul-19 04:33N 53°35' E 005°11'1212.3
2014-Jul-19 03:33N 53°40' E 005°31'1111.5
2014-Jul-19 02:33N 53°43' E 005°49'1110.8
2014-Jul-19 01:33N 53°47' E 006°07'1110.6
2014-Jul-19 00:34N 53°50' E 006°24'1110.5
2014-Jul-18 23:29N 53°53' E 006°42'1111.1
2014-Jul-18 22:31N 53°56' E 006°60'1612.2
2014-Jul-18 21:11N 54°00' E 007°26'812.7
2014-Jul-18 20:33N 54°02' E 007°40'1312.9
2014-Jul-18 19:33N 54°01' E 008°02'1313.1
2014-Jul-18 18:33N 53°59' E 008°24'1212.4
2014-Jul-18 17:34N 53°54' E 008°42'9 8.8
2014-Jul-18 16:33N 53°51' E 008°56'8 6.8
2014-Jul-18 15:26N 53°54' E 009°09'4 4.0
2014-Jul-18 14:31N 53°56' E 009°13'8 8.5
2014-Jul-18 13:33N 54°04' E 009°19'38 4.7
2014-Jul-18 05:33N 54°24' E 010°12'9 9.2
2014-Jul-18 04:33N 54°31' E 010°23'9 8.7
2014-Jul-18 03:32N 54°35' E 010°37'8 8.6
2014-Jul-18 02:33N 54°35' E 010°51'9 9.0
2014-Jul-18 01:33N 54°36' E 011°07'9 9.2
2014-Jul-18 00:33N 54°33' E 011°22'10 9.6
2014-Jul-17 23:33N 54°29' E 011°37'9 9.0
2014-Jul-17 22:33N 54°26' E 011°52'1010.1
2014-Jul-17 21:33N 54°28' E 012°09'1110.7
2014-Jul-17 20:33N 54°37' E 012°16'1010.4
2014-Jul-17 19:33N 54°43' E 012°31'1110.6
2014-Jul-17 18:31N 54°49' E 012°47'1111.0
2014-Jul-17 17:28N 54°53' E 013°06'1011.1
2014-Jul-17 16:33N 54°56' E 013°23'1110.8
2014-Jul-17 15:33N 54°59' E 013°41'1111.0
2014-Jul-17 14:33N 55°03' E 013°59'2211.2
2014-Jul-17 12:33N 55°20' E 014°25'1211.2
2014-Jul-17 11:27N 55°29' E 014°40'1111.2
2014-Jul-17 10:26N 55°34' E 014°57'1011.4
2014-Jul-17 09:33N 55°39' E 015°13'1211.6
2014-Jul-17 08:31N 55°46' E 015°31'1111.9
2014-Jul-17 07:33N 55°51' E 015°49'1211.8
2014-Jul-17 06:33N 55°58' E 016°07'1211.8
2014-Jul-17 05:33N 56°03' E 016°25'2311.2
2014-Jul-17 03:27N 56°22' E 016°51'1111.8
2014-Jul-17 02:33N 56°32' E 016°58'2411.9
2014-Jul-17 00:31N 56°54' E 017°14'1212.2
2014-Jul-16 23:33N 57°05' E 017°22'1212.0
2014-Jul-16 22:33N 57°16' E 017°30'1211.8
2014-Jul-16 21:33N 57°27' E 017°39'1211.5
2014-Jul-16 20:33N 57°37' E 017°49'  

Dump ship's entire track history